Time,TemperatureF,DewpointF,PressureIn,WindDirection,WindDirectionDegrees,WindSpeedMPH,WindSpeedGustMPH,Humidity,HourlyPrecipIn,Conditions,Clouds,dailyrainin,SolarRadiationWatts/m^2,SoftwareType,DateUTC
2013-02-23 00:11:00,14.0,11.0,-100.00,North,1,0.0,2.0,87,0.00,,,0.00,0.000000,,2013-02-23 06:11:00,
2013-02-23 00:22:00,14.0,11.0,-100.00,North,1,0.0,2.0,87,0.00,,,0.00,0.000000,,2013-02-23 06:22:00,
2013-02-23 00:32:00,14.0,11.0,-100.00,North,1,0.0,2.0,87,0.00,,,0.00,0.000000,,2013-02-23 06:32:00,
2013-02-23 00:41:00,14.0,11.0,-100.00,North,1,0.0,2.0,87,0.00,,,0.00,0.000000,,2013-02-23 06:41:00,
2013-02-23 01:11:00,10.0,6.0,-100.00,ENE,70,0.0,0.0,85,0.00,,,0.00,0.000000,,2013-02-23 07:11:00,
2013-02-23 01:21:00,10.0,6.0,-100.00,ENE,70,0.0,0.0,85,0.00,,,0.00,0.000000,,2013-02-23 07:21:00,
2013-02-23 01:32:00,10.0,6.0,-100.00,ENE,70,0.0,0.0,85,0.00,,,0.00,0.000000,,2013-02-23 07:32:00,
2013-02-23 01:41:00,10.0,6.0,-100.00,ENE,70,0.0,0.0,85,0.00,,,0.00,0.000000,,2013-02-23 07:41:00,
2013-02-23 02:11:00,8.0,4.0,-100.00,NE,47,0.0,0.0,83,0.00,,,0.00,0.000000,,2013-02-23 08:11:00,
2013-02-23 02:21:00,8.0,4.0,-100.00,NE,47,0.0,0.0,83,0.00,,,0.00,0.000000,,2013-02-23 08:21:00,
2013-02-23 03:11:00,10.0,7.0,-100.00,ENE,64,0.0,0.0,86,-99.99,,,0.00,0.000000,,2013-02-23 09:11:00,
2013-02-23 03:21:00,10.0,7.0,-100.00,ENE,64,0.0,0.0,86,-99.99,,,0.00,0.000000,,2013-02-23 09:21:00,
2013-02-23 03:32:00,10.0,7.0,-100.00,ENE,64,0.0,0.0,86,-99.99,,,0.00,0.000000,,2013-02-23 09:32:00,
2013-02-23 03:41:00,10.0,7.0,-100.00,ENE,64,0.0,0.0,86,-99.99,,,0.00,0.000000,,2013-02-23 09:41:00,
2013-02-23 04:11:00,13.0,9.0,-100.00,NE,54,0.0,2.0,85,0.00,,,0.00,0.000000,,2013-02-23 10:11:00,
2013-02-23 04:21:00,13.0,9.0,-100.00,NE,54,0.0,2.0,85,0.00,,,0.00,0.000000,,2013-02-23 10:21:00,
2013-02-23 04:32:00,13.0,9.0,-100.00,NE,54,0.0,2.0,85,0.00,,,0.00,0.000000,,2013-02-23 10:32:00,
2013-02-23 04:42:00,13.0,9.0,-100.00,NE,54,0.0,2.0,85,0.00,,,0.00,0.000000,,2013-02-23 10:42:00,
2013-02-23 05:11:00,11.0,7.0,-100.00,South,171,1.0,2.0,85,0.00,,,0.00,0.000000,,2013-02-23 11:11:00,
2013-02-23 05:21:00,11.0,7.0,-100.00,South,171,1.0,2.0,85,0.00,,,0.00,0.000000,,2013-02-23 11:21:00,
2013-02-23 05:32:00,11.0,7.0,-100.00,South,171,1.0,2.0,85,0.00,,,0.00,0.000000,,2013-02-23 11:32:00,
2013-02-23 05:42:00,11.0,7.0,-100.00,South,171,1.0,2.0,85,0.00,,,0.00,0.000000,,2013-02-23 11:42:00,
2013-02-23 06:11:00,14.0,11.0,-100.00,North,350,3.0,4.0,89,0.00,,,0.00,0.000000,,2013-02-23 12:11:00,
2013-02-23 06:21:00,14.0,11.0,-100.00,North,350,3.0,4.0,89,0.00,,,0.00,0.000000,,2013-02-23 12:21:00,
2013-02-23 06:32:00,14.0,11.0,-100.00,North,350,3.0,4.0,89,0.00,,,0.00,0.000000,,2013-02-23 12:32:00,
2013-02-23 06:42:00,14.0,11.0,-100.00,North,350,3.0,4.0,89,0.00,,,0.00,0.000000,,2013-02-23 12:42:00,
2013-02-23 07:11:00,17.0,15.0,-100.00,SSW,204,0.0,5.0,90,0.00,,,0.00,0.000000,,2013-02-23 13:11:00,
2013-02-23 07:22:00,17.0,15.0,-100.00,SSW,204,0.0,5.0,90,0.00,,,0.00,0.000000,,2013-02-23 13:22:00,
2013-02-23 07:32:00,17.0,15.0,-100.00,SSW,204,0.0,5.0,90,0.00,,,0.00,0.000000,,2013-02-23 13:32:00,
2013-02-23 07:42:00,17.0,15.0,-100.00,SSW,204,0.0,5.0,90,0.00,,,0.00,0.000000,,2013-02-23 13:42:00,
2013-02-23 08:11:00,18.0,16.0,-100.00,SW,218,2.0,3.0,90,0.00,,,0.00,21.000000,,2013-02-23 14:11:00,
2013-02-23 08:21:00,18.0,16.0,-100.00,SW,218,2.0,3.0,90,0.00,,,0.00,21.000000,,2013-02-23 14:21:00,
2013-02-23 08:32:00,18.0,16.0,-100.00,SW,218,2.0,3.0,90,0.00,,,0.00,21.000000,,2013-02-23 14:32:00,
2013-02-23 08:42:00,18.0,16.0,-100.00,SW,218,2.0,3.0,90,0.00,,,0.00,21.000000,,2013-02-23 14:42:00,
2013-02-23 09:11:00,21.0,19.0,-100.00,WSW,247,2.0,4.0,90,0.00,,,0.00,66.000000,,2013-02-23 15:11:00,
2013-02-23 09:22:00,21.0,19.0,-100.00,WSW,247,2.0,4.0,90,0.00,,,0.00,66.000000,,2013-02-23 15:22:00,
2013-02-23 09:32:00,21.0,19.0,-100.00,WSW,247,2.0,4.0,90,0.00,,,0.00,66.000000,,2013-02-23 15:32:00,
2013-02-23 09:42:00,21.0,19.0,-100.00,WSW,247,2.0,4.0,90,0.00,,,0.00,66.000000,,2013-02-23 15:42:00,
2013-02-23 10:11:00,23.0,20.0,-100.00,WSW,238,3.0,5.0,89,0.00,,,0.00,81.000000,,2013-02-23 16:11:00,
2013-02-23 10:21:00,23.0,20.0,-100.00,WSW,238,3.0,5.0,89,0.00,,,0.00,81.000000,,2013-02-23 16:21:00,
2013-02-23 10:31:00,23.0,20.0,-100.00,WSW,238,3.0,5.0,89,0.00,,,0.00,81.000000,,2013-02-23 16:31:00,
2013-02-23 10:42:00,23.0,20.0,-100.00,WSW,238,3.0,5.0,89,0.00,,,0.00,81.000000,,2013-02-23 16:42:00,
2013-02-23 11:11:00,26.0,22.0,-100.00,West,273,4.0,6.0,86,0.00,,,0.00,137.000000,,2013-02-23 17:11:00,
2013-02-23 11:21:00,26.0,22.0,-100.00,West,273,4.0,6.0,86,0.00,,,0.00,137.000000,,2013-02-23 17:21:00,
2013-02-23 11:32:00,26.0,22.0,-100.00,West,273,4.0,6.0,86,0.00,,,0.00,137.000000,,2013-02-23 17:32:00,
2013-02-23 11:42:00,26.0,22.0,-100.00,West,273,4.0,6.0,86,0.00,,,0.00,137.000000,,2013-02-23 17:42:00,
2013-02-23 12:12:00,27.0,23.0,-100.00,West,269,5.0,8.0,84,0.00,,,0.00,148.000000,,2013-02-23 18:12:00,
2013-02-23 12:22:00,27.0,23.0,-100.00,West,269,5.0,8.0,84,0.00,,,0.00,148.000000,,2013-02-23 18:22:00,
2013-02-23 12:32:00,27.0,23.0,-100.00,West,269,5.0,8.0,84,0.00,,,0.00,148.000000,,2013-02-23 18:32:00,
2013-02-23 12:42:00,27.0,23.0,-100.00,West,269,5.0,8.0,84,0.00,,,0.00,148.000000,,2013-02-23 18:42:00,
2013-02-23 13:11:00,29.0,25.0,-100.00,WNW,294,6.0,10.0,83,0.05,,,0.05,132.000000,,2013-02-23 19:11:00,
2013-02-23 13:21:00,29.0,25.0,-100.00,WNW,294,6.0,10.0,83,0.05,,,0.05,132.000000,,2013-02-23 19:21:00,
2013-02-23 13:32:00,29.0,25.0,-100.00,WNW,294,6.0,10.0,83,0.05,,,0.05,132.000000,,2013-02-23 19:32:00,
2013-02-23 13:41:00,29.0,25.0,-100.00,WNW,294,6.0,10.0,83,0.05,,,0.05,132.000000,,2013-02-23 19:41:00,
2013-02-23 14:11:00,30.0,25.0,-100.00,West,260,5.0,9.0,81,0.05,,,0.10,128.000000,,2013-02-23 20:11:00,
2013-02-23 14:21:00,30.0,25.0,-100.00,West,260,5.0,9.0,81,0.05,,,0.10,128.000000,,2013-02-23 20:21:00,
2013-02-23 14:32:00,30.0,25.0,-100.00,West,260,5.0,9.0,81,0.05,,,0.10,128.000000,,2013-02-23 20:32:00,
2013-02-23 14:41:00,30.0,25.0,-100.00,West,260,5.0,9.0,81,0.05,,,0.10,128.000000,,2013-02-23 20:41:00,
2013-02-23 15:11:00,28.0,25.0,-100.00,WNW,301,4.0,10.0,87,0.02,,,0.12,59.000000,,2013-02-23 21:11:00,
2013-02-23 15:22:00,28.0,25.0,-100.00,WNW,301,4.0,10.0,87,0.02,,,0.12,59.000000,,2013-02-23 21:22:00,
2013-02-23 15:32:00,28.0,25.0,-100.00,WNW,301,4.0,10.0,87,0.02,,,0.12,59.000000,,2013-02-23 21:32:00,
2013-02-23 15:41:00,28.0,25.0,-100.00,WNW,301,4.0,10.0,87,0.02,,,0.12,59.000000,,2013-02-23 21:41:00,
2013-02-23 16:11:00,28.0,24.0,-100.00,NW,325,6.0,11.0,84,0.00,,,0.12,39.000000,,2013-02-23 22:11:00,
2013-02-23 16:22:00,28.0,24.0,-100.00,NW,325,6.0,11.0,84,0.00,,,0.12,39.000000,,2013-02-23 22:22:00,
2013-02-23 16:32:00,28.0,24.0,-100.00,NW,325,6.0,11.0,84,0.00,,,0.12,39.000000,,2013-02-23 22:32:00,
2013-02-23 16:42:00,28.0,24.0,-100.00,NW,325,6.0,11.0,84,0.00,,,0.12,39.000000,,2013-02-23 22:42:00,
2013-02-23 17:11:00,27.0,23.0,-100.00,North,352,6.0,12.0,85,0.00,,,0.12,35.000000,,2013-02-23 23:11:00,
2013-02-23 17:21:00,27.0,23.0,-100.00,North,352,6.0,12.0,85,0.00,,,0.12,35.000000,,2013-02-23 23:21:00,
2013-02-23 17:31:00,27.0,23.0,-100.00,North,352,6.0,12.0,85,0.00,,,0.12,35.000000,,2013-02-23 23:31:00,
2013-02-23 17:42:00,27.0,23.0,-100.00,North,352,6.0,12.0,85,0.00,,,0.12,35.000000,,2013-02-23 23:42:00,
2013-02-23 18:11:00,26.0,23.0,-100.00,NNW,335,3.0,9.0,88,0.00,,,0.12,11.000000,,2013-02-24 00:11:00,
2013-02-23 18:22:00,26.0,23.0,-100.00,NNW,335,3.0,9.0,88,0.00,,,0.12,11.000000,,2013-02-24 00:22:00,
2013-02-23 18:32:00,26.0,23.0,-100.00,NNW,335,3.0,9.0,88,0.00,,,0.12,11.000000,,2013-02-24 00:32:00,
2013-02-23 18:42:00,26.0,23.0,-100.00,NNW,335,3.0,9.0,88,0.00,,,0.12,11.000000,,2013-02-24 00:42:00,
2013-02-23 19:11:00,25.0,22.0,-100.00,North,350,0.0,3.0,90,0.00,,,0.12,0.000000,,2013-02-24 01:11:00,
2013-02-23 19:22:00,25.0,22.0,-100.00,North,350,0.0,3.0,90,0.00,,,0.12,0.000000,,2013-02-24 01:22:00,
2013-02-23 19:31:00,25.0,22.0,-100.00,North,350,0.0,3.0,90,0.00,,,0.12,0.000000,,2013-02-24 01:31:00,
2013-02-23 19:42:00,25.0,22.0,-100.00,North,350,0.0,3.0,90,0.00,,,0.12,0.000000,,2013-02-24 01:42:00,
2013-02-23 20:11:00,25.0,23.0,-100.00,WNW,297,0.0,2.0,93,0.00,,,0.12,0.000000,,2013-02-24 02:11:00,
2013-02-23 20:21:00,25.0,23.0,-100.00,WNW,297,0.0,2.0,93,0.00,,,0.12,0.000000,,2013-02-24 02:21:00,
2013-02-23 20:32:00,25.0,23.0,-100.00,WNW,297,0.0,2.0,93,0.00,,,0.12,0.000000,,2013-02-24 02:32:00,
2013-02-23 20:42:00,25.0,23.0,-100.00,WNW,297,0.0,2.0,93,0.00,,,0.12,0.000000,,2013-02-24 02:42:00,
2013-02-23 21:11:00,25.0,23.0,-100.00,NW,312,2.0,5.0,93,0.00,,,0.12,0.000000,,2013-02-24 03:11:00,
2013-02-23 21:21:00,25.0,23.0,-100.00,NW,312,2.0,5.0,93,0.00,,,0.12,0.000000,,2013-02-24 03:21:00,
2013-02-23 21:32:00,25.0,23.0,-100.00,NW,312,2.0,5.0,93,0.00,,,0.12,0.000000,,2013-02-24 03:32:00,
2013-02-23 21:42:00,25.0,23.0,-100.00,NW,312,2.0,5.0,93,0.00,,,0.12,0.000000,,2013-02-24 03:42:00,
2013-02-23 22:11:00,25.0,23.0,-100.00,North,1,2.0,4.0,93,0.00,,,0.12,0.000000,,2013-02-24 04:11:00,
2013-02-23 22:21:00,25.0,23.0,-100.00,North,1,2.0,4.0,93,0.00,,,0.12,0.000000,,2013-02-24 04:21:00,
2013-02-23 22:32:00,25.0,23.0,-100.00,North,1,2.0,4.0,93,0.00,,,0.12,0.000000,,2013-02-24 04:32:00,
2013-02-23 22:41:00,25.0,23.0,-100.00,North,1,2.0,4.0,93,0.00,,,0.12,0.000000,,2013-02-24 04:41:00,
2013-02-23 23:11:00,25.0,23.0,-100.00,NNW,342,4.0,7.0,91,0.00,,,0.12,0.000000,,2013-02-24 05:11:00,
2013-02-23 23:22:00,25.0,23.0,-100.00,NNW,342,4.0,7.0,91,0.00,,,0.12,0.000000,,2013-02-24 05:22:00,
2013-02-23 23:32:00,25.0,23.0,-100.00,NNW,342,4.0,7.0,91,0.00,,,0.12,0.000000,,2013-02-24 05:32:00,
2013-02-23 23:42:00,25.0,23.0,-100.00,NNW,342,4.0,7.0,91,0.00,,,0.12,0.000000,,2013-02-24 05:42:00,